• Join FlightAware (Why Join?)
  • Login
  • US Flag 
02:21AM EDT


 

Airport Tracker/Info


-or-


 

Live Flight TrackerFlight Track Log ✈ RPA4910 ✈ 15-Jul-2013 ✈ KEWR - KBTV

Flight Track Log - Related Links

Times and Time Zones

All times are in EDT time to prevent confusion due to time zone crossing. See the RPA4910 flight status page for this flight to view local times or setup timezone preferences in your user account.

Time Position Orientation Groundspeed Altitude Reporting Facility
EDT Latitude Longitude Course Direction KTS MPH feet Rate Location/Type
10:10PM 40.7167 -74.1333 90° East 183 211 1,900  Level New York TRACON
10:11PM 40.7667 -74.1000 27° Northeast 208 239 4,100 1,500 Climbing New York TRACON
10:12PM 40.8333 -74.1000 360° North 239 275 5,000 660 Climbing New York TRACON
10:13PM 40.9000 -74.1167 349° North 242 278 5,500 480 Climbing New York TRACON
10:14PM 41.1474 -74.1333 North  Level FlightAware Approximate
10:14PM 40.9667 -74.1167 360° North 256 295 6,000  Level New York TRACON
10:15PM 41.1757 -74.0178 74° East  Level FlightAware Approximate
10:16PM 41.2000 -73.9063 90° East  Level FlightAware Approximate
10:17PM 41.0708 -73.9625 48° Northeast 255 293 7,600  Level Boston Center
10:18PM 41.1200 -73.8783 52° Northeast 265 305 9,300 1,260 Climbing Boston Center
10:19PM 41.1606 -73.7967 57° Northeast 279 321 10,200 900 Climbing Boston Center
10:20PM 41.2158 -73.7011 52° Northeast 290 334 11,100 840 Climbing Boston Center
10:21PM 41.2911 -73.6833 10° North 279 321 11,900 840 Climbing Boston Center
10:22PM 41.3831 -73.6683 North 289 333 12,800 720 Climbing Boston Center
10:23PM 41.4603 -73.6561 North 306 352 13,400 600 Climbing Boston Center
10:24PM 41.5561 -73.6414 North 311 358 14,000 600 Climbing Boston Center
10:25PM 41.6356 -73.6289 North 311 358 14,600 660 Climbing Boston Center
10:26PM 41.7294 -73.6139 North 311 358 15,400 900 Climbing Boston Center
10:27PM 41.8150 -73.6017 North 311 358 16,400 840 Climbing Boston Center
10:28PM 41.8944 -73.5864 North 300 345 17,100 720 Climbing Boston Center
10:29PM 41.9800 -73.5739 North 300 345 17,900 600 Climbing Boston Center
10:30PM 42.0614 -73.5614 North 295 339 18,300 540 Climbing Boston Center
10:31PM 42.1469 -73.5489 North 295 339 19,000 300 Climbing Boston Center
10:32PM 42.2367 -73.5364 North 301 346 19,000  Level Boston Center
10:33PM 42.3286 -73.5214 North 314 361 19,000  Level Boston Center
10:34PM 42.4183 -73.5031 North 319 367 19,000  Level Boston Center
10:35PM 42.5039 -73.4878 North 335 386 19,000  Level Boston Center
10:36PM 42.6061 -73.4725 North 335 386 19,000  Level Boston Center
10:37PM 42.6981 -73.4542 North 335 386 19,000  Level Boston Center
10:38PM 42.7919 -73.4417 North 335 386 19,000  Level Boston Center
10:39PM 42.8839 -73.4261 North 335 386 19,000  Level Boston Center
10:40PM 42.9756 -73.4078 North 335 386 19,000  Level Boston Center
10:41PM 43.0675 -73.3950 North 335 386 19,000  Level Boston Center
10:42PM 43.1572 -73.3792 North 335 386 19,000  Level Boston Center
10:43PM 43.2511 -73.3636 North 335 386 19,000  Level Boston Center
10:44PM 43.3431 -73.3481 North 329 379 19,000 -240 Level Boston Center
10:45PM 43.4347 -73.3322 North 334 384 18,600 -840 Descending Boston Center
10:46PM 43.5350 -73.3164 North 341 392 17,400 -1,320 Descending Boston Center
10:47PM 43.6331 -73.2978 North 349 402 16,000 -1,440 Descending Boston Center
10:48PM 43.7186 -73.2875 North 346 398 14,600 -1,560 Descending Boston Center
10:49PM 43.8103 -73.2717 North 340 391 12,900 -1,800 Descending Boston Center
10:50PM 43.9000 -73.2556 North 326 375 11,100 -1,980 Descending Boston Center
10:51PM 43.9875 -73.2594 358° North 297 342 9,000 -1,920 Descending Boston Center
10:52PM 44.0625 -73.2664 356° North 274 315 7,300 -1,380 Descending Boston Center
10:53PM 44.1311 -73.2731 356° North 248 285 6,300 -960 Descending Boston Center
10:54PM 44.2000 -73.2797 356° North 243 280 5,400 -960 Descending Boston Center
10:55PM 44.2667 -73.2867 356° North 249 287 4,400 -1,020 Descending Boston Center
10:56PM 44.3331 -73.2906 358° North 238 274 3,400 -1,080 Descending Boston Center
10:57PM 44.3958 -73.2914 359° North 232 267 2,300 -1,140 Descending Boston Center